Weather in Malysheva

Russia / Sverdlovsk Oblast     57°07′00″N   61°23′42″E
temp.,
°C
wind,
m/s
gust,
m/s
humid.,
%
clouds,
%
prec.,
mm/h
press.,
hPa
HPBL,
m
23 april, fri
fri2323:00+7ssw2361100 0.0 103140
02:00+6w2271100 0.0 103128
05:00+6nne0076100 0.0 103110
08:00+7sw236599 0.0 1031519
11:00+9ssw3459100 0.0 10311288
14:00+8sw3470100 0.1 10311090
17:00+9sw1366100 0.2 1030947
20:00+8ne1174100 0.0 103010
24 april, sat
sat2423:00+7e2282100 0.0 102952
02:00+7ese2683100 0.0 1027192
05:00+7sse4992100 0.2 1026447
08:00+6se3793100 1.0 10251006
11:00+7se4880100 1.5 10241036
14:00+5se3892100 0.4 1023831
17:00+6se4985100 0.8 1021921
20:00+7ese4967100 0.6 1020565
25 april, sun
sun2523:00+6e41163100 0.6 1018410
02:00+4e3969100 0.0 1017256
05:00+4se397598 0.0 1016404
08:00+3ese389196 0.1 1015498
11:00+7ese4670100 0.1 10141076
14:00+8s4770100 0.1 1013960
17:00+9sse576150 0.1 10111089
20:00+7s2784100 0.7 1010510
26 april, mon
mon2623:00+5wsw3108979 0.8 1010418
02:00+4wsw61296100 0.3 1010882
05:00+3wsw51279100 1.1 1012861
08:00+5wsw512715 0.0 10141083
11:00+8w7125291 0.1 10141965
14:00+10wsw61140100 0.2 10152737
17:00+11wsw6113851 0.2 10152768
20:00+8wsw410505 0.0 1016585
27 april, tue
tue2723:00+5sw311675 0.0 1017275
02:00+4sw31070100 0.0 1016260
05:00+4ssw2570100 0.0 1015108
08:00+5s3766100 0.0 1014382
11:00+7s3571100 0.2 1012870
14:00+7e3577100 0.4 1010895
17:00+6e3580100 0.7 1009787
20:00+5e1288100 0.2 1008145